NOZ666 ENZV-ENKB

Flight info

Callsign NOZ666
Flight time 1h 3m
Altitude 29000
Route GEDLU DCT TUMIM
Aircraft B738/M-SDE2E3FGHIRWXY/LB1

Departure

Time 2026-04-20 23:03
Airport Stavanger Airport, Sola (ENZV)

Arrival

Time 2026-04-21 00:06
Airport Kristiansund Airport, Kvernberget (ENKB)
Time Latitude Longitude Altitude Speed Heading
2026-04-20 22:33 58.88240 5.63106 28 ft 0 kts 255°
2026-04-20 22:52 58.88243 5.63131 29 ft 4 kts 255°
2026-04-20 22:52 58.88250 5.63181 29 ft 4 kts 255°
2026-04-20 22:53 58.88252 5.63194 29 ft 1 kts 255°
2026-04-20 22:57 58.88251 5.63193 25 ft 1 kts 255°
2026-04-20 22:57 58.88237 5.63167 26 ft 4 kts 184°
2026-04-20 22:57 58.88219 5.63201 27 ft 4 kts 122°
2026-04-20 22:58 58.88209 5.63245 27 ft 4 kts 114°
2026-04-20 22:58 58.88199 5.63287 29 ft 3 kts 114°
2026-04-20 22:58 58.88189 5.63329 30 ft 3 kts 114°
2026-04-20 22:58 58.88180 5.63370 31 ft 3 kts 114°
2026-04-20 22:59 58.88157 5.63418 30 ft 6 kts 150°
2026-04-20 22:59 58.88111 5.63435 29 ft 7 kts 174°
2026-04-20 22:59 58.88056 5.63445 29 ft 8 kts 180°
2026-04-20 22:59 58.88001 5.63418 30 ft 8 kts 194°
2026-04-20 23:00 58.87948 5.63376 29 ft 8 kts 204°
2026-04-20 23:00 58.87892 5.63330 30 ft 9 kts 202°
2026-04-20 23:00 58.87829 5.63293 30 ft 10 kts 185°
2026-04-20 23:00 58.87754 5.63343 30 ft 14 kts 126°
2026-04-20 23:01 58.87722 5.63516 36 ft 13 kts 107°
2026-04-20 23:01 58.87695 5.63685 31 ft 13 kts 107°
2026-04-20 23:01 58.87677 5.63850 32 ft 13 kts 131°
2026-04-20 23:01 58.87667 5.63813 33 ft 6 kts 316°
2026-04-20 23:02 58.87679 5.63770 30 ft 0 kts 290°
2026-04-20 23:02 58.87732 5.63434 31 ft 62 kts 287°
2026-04-20 23:02 58.87922 5.62183 25 ft 129 kts 286°
2026-04-20 23:03 58.88219 5.60195 84 ft 175 kts 285°
2026-04-20 23:03 58.88513 5.57867 823 ft 174 kts 282°
2026-04-20 23:03 58.88816 5.55596 1540 ft 182 kts 289°
2026-04-20 23:03 58.89231 5.53060 1843 ft 211 kts 289°
2026-04-20 23:04 58.89682 5.50206 2122 ft 231 kts 288°
2026-04-20 23:04 58.90151 5.47180 2625 ft 238 kts 291°
2026-04-20 23:04 58.91097 5.44645 3152 ft 240 kts 328°
2026-04-20 23:04 58.92700 5.43739 3589 ft 250 kts
2026-04-20 23:05 58.94390 5.44673 4245 ft 257 kts 31°
2026-04-20 23:05 58.95698 5.46988 5056 ft 258 kts 58°
2026-04-20 23:05 58.96320 5.50233 5870 ft 259 kts 82°
2026-04-20 23:05 58.96538 5.53715 6707 ft 261 kts 84°
2026-04-20 23:06 58.96752 5.57232 7500 ft 263 kts 84°
2026-04-20 23:06 58.96981 5.60786 8252 ft 267 kts 83°
2026-04-20 23:06 58.97552 5.64205 8988 ft 272 kts 57°
2026-04-20 23:06 58.98916 5.66700 9754 ft 278 kts 30°
2026-04-20 23:07 59.00775 5.67786 10512 ft 284 kts
2026-04-20 23:07 59.02790 5.67845 10969 ft 299 kts
2026-04-20 23:07 59.04947 5.67721 11137 ft 321 kts 360°
2026-04-20 23:07 59.07255 5.67548 11282 ft 342 kts 359°
2026-04-20 23:08 59.09707 5.67368 11457 ft 362 kts 359°
2026-04-20 23:08 59.12274 5.67194 11812 ft 373 kts 360°
2026-04-20 23:08 59.14890 5.67030 12411 ft 377 kts 360°
2026-04-20 23:08 59.17527 5.66878 13111 ft 379 kts
2026-04-20 23:09 59.20149 5.66735 13790 ft 382 kts
2026-04-20 23:09 59.22823 5.66594 14414 ft 387 kts
2026-04-20 23:09 59.25529 5.66453 15019 ft 390 kts
2026-04-20 23:09 59.28254 5.66311 15673 ft 393 kts
2026-04-20 23:10 59.30995 5.66168 16331 ft 396 kts
2026-04-20 23:10 59.33767 5.66023 16963 ft 399 kts
2026-04-20 23:10 59.36518 5.65879 17575 ft 402 kts
2026-04-20 23:10 59.39333 5.65732 18191 ft 405 kts
2026-04-20 23:11 59.42169 5.65579 18790 ft 409 kts
2026-04-20 23:11 59.45021 5.65254 19319 ft 412 kts 358°
2026-04-20 23:11 59.47888 5.64777 19864 ft 414 kts 357°
2026-04-20 23:11 59.50767 5.64258 20424 ft 416 kts 356°
2026-04-20 23:12 59.53660 5.63742 20983 ft 417 kts 357°
2026-04-20 23:12 59.56560 5.63244 21496 ft 420 kts 357°
2026-04-20 23:12 59.59482 5.62758 21995 ft 422 kts 357°
2026-04-20 23:12 59.62383 5.62283 22476 ft 425 kts 357°
2026-04-20 23:13 59.65338 5.61799 22962 ft 427 kts 357°
2026-04-20 23:13 59.68311 5.61311 23444 ft 429 kts 357°
2026-04-20 23:13 59.70302 5.60984 23753 ft 431 kts 357°
2026-04-20 23:13 59.73299 5.60490 24186 ft 433 kts 357°
2026-04-20 23:14 59.77306 5.59829 24651 ft 437 kts 357°
2026-04-20 23:14 59.80346 5.59339 24999 ft 439 kts 358°
2026-04-20 23:14 59.83417 5.59298 25326 ft 440 kts
2026-04-20 23:14 59.85443 5.59585 25540 ft 442 kts
2026-04-20 23:15 59.88519 5.60135 25856 ft 444 kts
2026-04-20 23:15 59.91608 5.60735 26157 ft 447 kts
2026-04-20 23:15 59.94716 5.61334 26458 ft 450 kts
2026-04-20 23:15 59.97849 5.61915 26771 ft 452 kts
2026-04-20 23:16 60.00954 5.62468 27054 ft 455 kts
2026-04-20 23:16 60.04121 5.63014 27340 ft 457 kts
2026-04-20 23:16 60.07297 5.63550 27604 ft 460 kts
2026-04-20 23:16 60.10493 5.64085 27872 ft 462 kts
2026-04-20 23:17 60.13706 5.64620 28256 ft 462 kts
2026-04-20 23:17 60.16900 5.65153 28699 ft 460 kts
2026-04-20 23:17 60.20091 5.65687 29119 ft 460 kts
2026-04-20 23:17 60.23287 5.66224 29482 ft 460 kts
2026-04-20 23:18 60.26477 5.66761 29844 ft 460 kts
2026-04-20 23:18 60.29666 5.67300 30243 ft 460 kts
2026-04-20 23:18 60.32808 5.67833 30627 ft 459 kts
2026-04-20 23:18 60.35992 5.68374 30933 ft 459 kts
2026-04-20 23:19 60.39179 5.68916 31211 ft 460 kts
2026-04-20 23:19 60.42374 5.69461 31542 ft 459 kts
2026-04-20 23:19 60.45557 5.70005 31899 ft 458 kts
2026-04-20 23:19 60.48735 5.70548 32230 ft 458 kts
2026-04-20 23:20 60.51916 5.71094 32542 ft 458 kts
2026-04-20 23:20 60.55098 5.71641 32848 ft 457 kts
2026-04-20 23:20 60.58267 5.72186 33170 ft 457 kts
2026-04-20 23:20 60.61442 5.72734 33483 ft 456 kts
2026-04-20 23:21 60.67767 5.73829 33535 ft 460 kts
2026-04-20 23:21 60.74135 5.74934 33544 ft 457 kts
2026-04-20 23:22 60.80462 5.76037 33534 ft 455 kts
2026-04-20 23:22 60.86736 5.77136 33536 ft 453 kts
2026-04-20 23:23 60.93014 5.78240 33533 ft 453 kts
2026-04-20 23:23 60.99300 5.79349 33538 ft 453 kts
2026-04-20 23:24 61.05592 5.80464 33538 ft 454 kts
2026-04-20 23:24 61.11908 5.81587 33545 ft 456 kts
2026-04-20 23:25 61.18240 5.82718 33529 ft 458 kts
2026-04-20 23:25 61.24554 5.83850 33537 ft 459 kts
2026-04-20 23:26 61.30922 5.84997 33528 ft 460 kts
2026-04-20 23:26 61.37312 5.86152 33532 ft 460 kts
2026-04-20 23:27 61.43690 5.87310 33533 ft 460 kts
2026-04-20 23:27 61.50073 5.88473 33540 ft 460 kts
2026-04-20 23:28 61.56442 5.89639 33535 ft 459 kts
2026-04-20 23:28 61.62816 5.90810 33551 ft 459 kts
2026-04-20 23:29 61.69129 5.92134 33548 ft 458 kts 12°
2026-04-20 23:29 61.72176 5.94078 33557 ft 456 kts 24°
2026-04-20 23:29 61.74975 5.97197 33558 ft 455 kts 34°
2026-04-20 23:30 61.79802 6.05778 33554 ft 454 kts 43°
2026-04-20 23:30 61.84497 6.14758 33148 ft 460 kts 43°
2026-04-20 23:31 61.86880 6.19287 32506 ft 459 kts 42°
2026-04-20 23:31 61.89265 6.23794 31745 ft 459 kts 42°
2026-04-20 23:31 61.91656 6.28297 30994 ft 459 kts 42°
2026-04-20 23:31 61.94022 6.32750 30164 ft 461 kts 42°
2026-04-20 23:32 61.96422 6.37272 29247 ft 461 kts 42°
2026-04-20 23:32 61.98821 6.41801 28374 ft 461 kts 42°
2026-04-20 23:32 62.01216 6.46333 27482 ft 461 kts 42°
2026-04-20 23:32 62.03615 6.50884 26567 ft 462 kts 41°
2026-04-20 23:33 62.06024 6.55464 25759 ft 461 kts 41°
2026-04-20 23:33 62.08404 6.60002 25166 ft 456 kts 42°
2026-04-20 23:33 62.10761 6.64504 24512 ft 452 kts 41°
2026-04-20 23:33 62.13100 6.68984 23802 ft 449 kts 41°
2026-04-20 23:34 62.15411 6.73417 23081 ft 445 kts 41°
2026-04-20 23:34 62.17704 6.77826 22428 ft 440 kts 41°
2026-04-20 23:34 62.19965 6.82185 21783 ft 434 kts 41°
2026-04-20 23:34 62.22199 6.86498 21144 ft 430 kts 41°
2026-04-20 23:35 62.24408 6.90769 20495 ft 426 kts 41°
2026-04-20 23:35 62.28733 6.99183 19259 ft 419 kts 42°
2026-04-20 23:35 62.30869 7.03406 18578 ft 416 kts 42°
2026-04-20 23:36 62.33012 7.07669 17950 ft 411 kts 42°
2026-04-20 23:36 62.35102 7.11837 17330 ft 407 kts 43°
2026-04-20 23:36 62.37148 7.15924 16692 ft 404 kts 43°
2026-04-20 23:36 62.39198 7.20024 16094 ft 401 kts 43°
2026-04-20 23:37 62.41236 7.24105 15485 ft 397 kts 43°
2026-04-20 23:37 62.43258 7.28160 14884 ft 394 kts 43°
2026-04-20 23:37 62.45260 7.32182 14289 ft 391 kts 43°
2026-04-20 23:37 62.47247 7.36180 13626 ft 388 kts 43°
2026-04-20 23:38 62.49210 7.40138 13041 ft 384 kts 43°
2026-04-20 23:38 62.51152 7.44062 12440 ft 380 kts 43°
2026-04-20 23:38 62.53076 7.47957 11852 ft 377 kts 43°
2026-04-20 23:38 62.54951 7.51759 11708 ft 361 kts 43°
2026-04-20 23:39 62.56730 7.55373 11544 ft 350 kts 43°
2026-04-20 23:39 62.58486 7.58946 11396 ft 342 kts 43°
2026-04-20 23:39 62.60201 7.62441 11248 ft 334 kts 43°
2026-04-20 23:39 62.61869 7.65846 11108 ft 323 kts 43°
2026-04-20 23:40 62.63478 7.69136 10974 ft 313 kts 43°
2026-04-20 23:40 62.65040 7.72334 10854 ft 303 kts 43°
2026-04-20 23:40 62.66554 7.75441 10730 ft 294 kts 43°
2026-04-20 23:40 62.68022 7.78454 10609 ft 286 kts 43°
2026-04-20 23:41 62.69450 7.81388 10417 ft 281 kts 43°
2026-04-20 23:41 62.70864 7.84300 10133 ft 278 kts 43°
2026-04-20 23:41 62.72263 7.87187 9851 ft 276 kts 43°
2026-04-20 23:41 62.73659 7.90048 9573 ft 274 kts 40°
2026-04-20 23:42 62.75202 7.92439 9331 ft 270 kts 30°
2026-04-20 23:42 62.76802 7.94449 9209 ft 259 kts 28°
2026-04-20 23:42 62.78329 7.96313 9098 ft 244 kts 28°
2026-04-20 23:42 62.79769 7.98087 8994 ft 231 kts 29°
2026-04-20 23:43 62.81111 7.99760 8859 ft 214 kts 29°
2026-04-20 23:43 62.82351 8.01322 8737 ft 197 kts 29°
2026-04-20 23:43 62.83504 8.02782 8467 ft 189 kts 30°
2026-04-20 23:43 62.84639 8.04226 8105 ft 188 kts 30°
2026-04-20 23:44 62.85763 8.05663 7742 ft 187 kts 30°
2026-04-20 23:44 62.86888 8.07103 7299 ft 190 kts 30°
2026-04-20 23:44 62.88038 8.08581 6819 ft 194 kts 30°
2026-04-20 23:44 62.89192 8.10066 6460 ft 189 kts 30°
2026-04-20 23:45 62.90296 8.11491 6214 ft 180 kts 29°
2026-04-20 23:45 62.91381 8.12889 6040 ft 182 kts 29°
2026-04-20 23:45 62.92467 8.14293 5855 ft 185 kts 29°
2026-04-20 23:45 62.93580 8.15734 5667 ft 186 kts 29°
2026-04-20 23:46 62.94696 8.17181 5462 ft 186 kts 29°
2026-04-20 23:46 62.95806 8.18620 5258 ft 184 kts 29°
2026-04-20 23:46 62.96907 8.20046 5064 ft 183 kts 27°
2026-04-20 23:46 62.98105 8.20593 4829 ft 174 kts 343°
2026-04-20 23:47 62.99263 8.19894 4721 ft 178 kts 343°
2026-04-20 23:47 63.00476 8.19232 4517 ft 181 kts 344°
2026-04-20 23:47 63.01696 8.18571 4313 ft 177 kts 344°
2026-04-20 23:47 63.02865 8.17936 4101 ft 169 kts 343°
2026-04-20 23:48 63.03982 8.17331 3927 ft 165 kts 343°
2026-04-20 23:48 63.05115 8.16714 3746 ft 166 kts 343°
2026-04-20 23:48 63.06223 8.16111 3576 ft 167 kts 343°
2026-04-20 23:48 63.07353 8.15495 3399 ft 168 kts 343°
2026-04-20 23:49 63.08491 8.14874 3218 ft 168 kts 344°
2026-04-20 23:49 63.09573 8.14149 3192 ft 161 kts 334°
2026-04-20 23:49 63.10564 8.12977 3198 ft 164 kts 323°
2026-04-20 23:49 63.11444 8.11401 3030 ft 159 kts 313°
2026-04-20 23:50 63.12139 8.09583 2813 ft 151 kts 302°
2026-04-20 23:50 63.12662 8.07609 2594 ft 146 kts 293°
2026-04-20 23:50 63.13026 8.05548 2391 ft 143 kts 284°
2026-04-20 23:50 63.13232 8.03416 2146 ft 140 kts 276°
2026-04-20 23:51 63.13281 8.01301 1915 ft 137 kts 267°
2026-04-20 23:51 63.13213 7.99199 1710 ft 137 kts 262°
2026-04-20 23:51 63.13096 7.97097 1498 ft 137 kts 262°
2026-04-20 23:51 63.12962 7.95041 1284 ft 136 kts 259°
2026-04-20 23:52 63.12757 7.93005 1063 ft 135 kts 255°
2026-04-20 23:52 63.12521 7.91000 841 ft 135 kts 256°
2026-04-20 23:52 63.12215 7.89065 644 ft 132 kts 251°
2026-04-20 23:52 63.11905 7.87161 408 ft 131 kts 255°
2026-04-20 23:53 63.11616 7.85277 252 ft 128 kts 253°
2026-04-20 23:53 63.11345 7.83272 469 ft 148 kts 257°
2026-04-20 23:53 63.11094 7.80937 1153 ft 173 kts 256°
2026-04-20 23:53 63.10626 7.78242 2036 ft 195 kts 241°
2026-04-20 23:54 63.09817 7.75801 3039 ft 213 kts 238°
2026-04-20 23:54 63.09385 7.72424 3584 ft 245 kts 274°
2026-04-20 23:54 63.10054 7.68967 4475 ft 261 kts 305°
2026-04-20 23:54 63.11536 7.66467 4047 ft 273 kts 341°
2026-04-20 23:55 63.13335 7.66358 4133 ft 261 kts 14°
2026-04-20 23:55 63.14970 7.68263 3482 ft 279 kts 38°
2026-04-20 23:55 63.16412 7.71564 1868 ft 319 kts 53°
2026-04-20 23:55 63.17594 7.75796 1921 ft 299 kts 61°
2026-04-20 23:56 63.18435 7.79525 2812 ft 256 kts 73°
2026-04-20 23:56 63.18671 7.83360 3009 ft 255 kts 86°
2026-04-20 23:56 63.18888 7.87350 2985 ft 264 kts 81°
2026-04-20 23:56 63.19227 7.91356 2989 ft 263 kts 78°
2026-04-20 23:57 63.19640 7.95188 2985 ft 246 kts 76°
2026-04-20 23:57 63.20071 7.98696 2969 ft 226 kts 74°
2026-04-20 23:57 63.20494 8.01926 2956 ft 212 kts 74°
2026-04-20 23:57 63.20926 8.05131 3011 ft 229 kts 73°
2026-04-20 23:58 63.21398 8.08565 3519 ft 239 kts 73°
2026-04-20 23:58 63.21893 8.12087 4211 ft 239 kts 72°
2026-04-20 23:58 63.22391 8.15598 4539 ft 242 kts 72°
2026-04-20 23:58 63.22910 8.19238 4574 ft 252 kts 72°
2026-04-20 23:59 63.23408 8.22957 4563 ft 249 kts 79°
2026-04-20 23:59 63.23414 8.25444 4554 ft 237 kts 103°
2026-04-20 23:59 63.22727 8.28521 4563 ft 213 kts 133°
2026-04-20 23:59 63.21614 8.30416 4556 ft 196 kts 156°
2026-04-21 00:00 63.20340 8.31345 4584 ft 192 kts 174°
2026-04-21 00:00 63.19017 8.31272 4576 ft 191 kts 189°
2026-04-21 00:00 63.17697 8.30928 4566 ft 190 kts 192°
2026-04-21 00:00 63.16599 8.29559 4466 ft 181 kts 236°
2026-04-21 00:01 63.16185 8.27021 4291 ft 174 kts 257°
2026-04-21 00:01 63.15911 8.24453 4066 ft 170 kts 256°
2026-04-21 00:01 63.15643 8.21945 3880 ft 166 kts 256°
2026-04-21 00:01 63.15377 8.19472 3690 ft 165 kts 256°
2026-04-21 00:02 63.15113 8.17021 3506 ft 163 kts 256°
2026-04-21 00:02 63.14848 8.14557 3253 ft 166 kts 256°
2026-04-21 00:02 63.14583 8.12106 3008 ft 165 kts 256°
2026-04-21 00:02 63.14318 8.09652 2749 ft 162 kts 256°
2026-04-21 00:03 63.14062 8.07291 2498 ft 154 kts 256°
2026-04-21 00:03 63.13823 8.05088 2320 ft 142 kts 255°
2026-04-21 00:03 63.13596 8.03003 2092 ft 138 kts 255°
2026-04-21 00:03 63.13375 8.00969 1861 ft 134 kts 256°
2026-04-21 00:04 63.13154 7.98943 1660 ft 137 kts 256°
2026-04-21 00:04 63.12927 7.96862 1451 ft 140 kts 256°
2026-04-21 00:04 63.12726 7.94763 1150 ft 140 kts 258°
2026-04-21 00:04 63.12544 7.92699 921 ft 136 kts 258°
2026-04-21 00:05 63.12334 7.90629 679 ft 139 kts 256°
2026-04-21 00:05 63.12080 7.88616 512 ft 133 kts 255°
2026-04-21 00:05 63.11815 7.86679 356 ft 130 kts 253°
2026-04-21 00:05 63.11532 7.84758 217 ft 131 kts 252°
2026-04-21 00:06 63.11271 7.83012 219 ft 104 kts 252°
2026-04-21 00:06 63.11133 7.82131 211 ft 8 kts 248°
2026-04-21 00:06 63.11133 7.82021 218 ft 8 kts 327°
2026-04-21 00:06 63.11160 7.82089 212 ft 8 kts 105°
2026-04-21 00:07 63.11155 7.82240 214 ft 12 kts 82°
2026-04-21 00:07 63.11181 7.82437 213 ft 16 kts 70°
2026-04-21 00:07 63.11216 7.82592 219 ft 9 kts 28°
2026-04-21 00:07 63.11283 7.82566 212 ft 10 kts 357°
2026-04-21 00:08 63.11337 7.82624 210 ft 3 kts 348°
2026-04-21 00:08 63.11343 7.82620 210 ft 0 kts 343°